Tracking 29892 objects as of 21-Nov-2024
HD Live streaming from Space Station
objects crossing your sky now

SCOUT G-1 DEB

Track SCOUT G-1 DEB now!
10-day predictions


NORAD ID: 43331
Int'l Code: 1988-033M
Perigee: 1,010.2 km
Apogee: 1,264.3 km
Inclination: 90.3 °
Period: 107.9 minutes
Semi major axis: 7508 km
RCS: Unknown
Launch date: April 26, 1988
Source: United States (US)
Launch site: AIR FORCE WESTERN TEST RANGE (AFWTR)

Note: This is SATELLITE DEBRIS
Your satellite tracking list
Your tracking list is empty




NASA's NSSDC Master Catalog

Two Line Element Set (TLE):
1 43331U 88033M   24318.39164595  .00001011  00000-0  18532-2 0  9990
2 43331  90.3130   0.6386 0169214   0.9325  10.5995 13.34428228159200
Source of the keplerian elements: AFSPC